Location: Steznica
(49.3330°N, 22.3330°E)
Time: 19:20:38
(UTC+01:00)

ISS - Visible Passes

Search period start: 24 March 2023 00:00
Search period end: 03 April 2023 01:00
Orbit: 414 x 422 km, 51.6° (Epoch: 24 March)

Date Brightness Start Highest point End Pass type
(mag) Time Alt. Az. Time Alt. Az. Time Alt. Az.
24 Mar -3.3 18:43:37 10° W 18:46:56 57° N 18:49:49 13° ENE visible
24 Mar -2.3 20:20:34 10° WNW 20:22:45 37° WNW 20:22:45 37° WNW visible
25 Mar -3.6 19:32:39 10° WNW 19:35:59 63° N 19:36:46 45° ENE visible
25 Mar -0.5 21:09:30 10° WNW 21:09:42 11° WNW 21:09:42 11° WNW visible
26 Mar -3.4 19:44:40 10° WNW 19:47:59 57° N 19:50:45 14° E visible
26 Mar -2.3 21:21:31 10° WNW 21:23:41 36° W 21:23:41 36° W visible
27 Mar -3.9 20:33:31 10° WNW 20:36:54 87° SSW 20:37:39 51° ESE visible
28 Mar -3.7 19:45:30 10° WNW 19:48:52 75° NNE 19:51:35 15° E visible
28 Mar -2.0 21:22:27 10° W 21:24:31 26° WSW 21:24:31 26° WSW visible
29 Mar -3.1 20:34:18 10° WNW 20:37:31 46° SSW 20:38:27 35° SSE visible
30 Mar -3.6 19:46:11 10° WNW 19:49:31 66° SSW 19:52:24 13° ESE visible
30 Mar -1.2 21:23:49 10° W 21:25:20 15° SW 21:25:20 15° SW visible
31 Mar -1.8 20:35:12 10° W 20:37:53 22° SW 20:39:19 17° S visible
01 Apr -2.4 19:46:49 10° W 19:49:52 32° SSW 19:52:53 10° SSE visible
